EW6157 Weather Reports


time (UTC)temp
C
wind
direction
speed
KPH
gust
KPH
rain 1hr
cm
rain 24hr
cm
rain mn
cm
humidity
%
barometer
mb
20260508011552 23 176 3.2 9.7 0.00 0.00 0.00 24 1010.7
20260508010059 23 165 3.2 12.9 0.00 0.00 0.00 24 1010.7
20260508004547 23 186 8.0 16.1 0.00 0.00 0.00 23 1010.6
20260508003047 23 199 11.3 19.3 0.00 0.00 0.00 23 1010.7
20260508001546 24 211 8.0 17.7 0.00 0.00 0.00 22 1010.8
20260508000047 24 207 6.4 17.7 0.00 0.00 0.00 22 1010.8
20260507234544 24 240 4.8 17.7 0.00 0.00 0.00 22 1010.8
20260507233043 24 217 4.8 19.3 0.00 0.00 0.00 21 1011.0
20260507231540 24 208 6.4 19.3 0.00 0.00 0.00 22 1011.2
20260507230054 24 212 3.2 17.7 0.00 0.00 0.00 23 1011.4
20260507224536 24 214 9.7 20.9 0.00 0.00 0.00 22 1011.8
20260507223105 23 213 8.0 24.1 0.00 0.00 0.00 23 1011.8
20260507221532 23 196 8.0 19.3 0.00 0.00 0.00 24 1012.0
20260507220029 23 80 4.8 14.5 0.00 0.00 0.00 23 1012.2
20260507214525 23 190 6.4 16.1 0.00 0.00 0.00 24 1012.4
20260507213022 23 159 6.4 19.3 0.00 0.00 0.00 24 1012.9
20260507211515 23 182 9.7 17.7 0.00 0.00 0.00 25 1013.2
20260507210014 22 224 4.8 17.7 0.00 0.00 0.00 26 1013.6
20260507204509 22 198 3.2 24.1 0.00 0.00 0.00 27 1013.9
20260507203019 22 248 11.3 20.9 0.00 0.00 0.00 26 1014.3
20260507201503 22 222 11.3 16.1 0.00 0.00 0.00 28 1014.5
20260507200000 21 191 11.3 22.5 0.00 0.00 0.00 30 1014.8
20260507194558 21 236 6.4 29.0 0.00 0.00 0.00 32 1015.2
20260507193055 20 257 9.7 19.3 0.00 0.00 0.00 32 1015.6
20260507191553 20 325 11.3 22.5 0.00 0.00 0.00 34 1015.8
20260507190052 20 274 8.0 17.7 0.00 0.00 0.00 38 1016.2
20260507184544 19 235 6.4 20.9 0.00 0.00 0.00 40 1016.5
20260507183042 18 241 11.3 20.9 0.00 0.00 0.00 41 1017.0
20260507181539 18 252 6.4 20.9 0.00 0.00 0.00 42 1017.3
20260507180036 18 212 8.0 19.3 0.00 0.00 0.00 45 1017.6
20260507174544 17 204 8.0 17.7 0.00 0.00 0.00 46 1017.9
20260507173029 16 245 11.3 17.7 0.00 0.00 0.00 49 1018.4
20260507171525 16 172 8.0 20.9 0.00 0.00 0.00 51 1018.6
20260507170022 15 194 9.7 20.9 0.00 0.00 0.00 53 1018.9
20260507164519 15 197 12.9 17.7 0.00 0.00 0.00 52 1019.1
20260507163016 14 222 9.7 19.3 0.00 0.00 0.00 55 1019.4
20260507161512 13 214 8.0 20.9 0.00 0.00 0.00 57 1019.4
20260507160010 12 229 9.7 19.3 0.00 0.00 0.00 60 1019.6
20260507154507 12 199 8.0 17.7 0.00 0.00 0.00 63 1019.7
20260507153003 11 202 9.7 17.7 0.00 0.00 0.00 67 1019.9
20260507151601 10 239 6.4 14.5 0.00 0.00 0.00 74 1020.0
20260507150056 8 207 6.4 16.1 0.00 0.00 0.00 80 1020.2
20260507144552 7 223 6.4 16.1 0.00 0.00 0.00 84 1020.3
20260507143054 6 198 4.8 11.3 0.00 0.00 0.00 87 1020.5
20260507141549 6 241 6.4 12.9 0.00 0.00 0.00 91 1020.7
20260507140049 5 260 4.8 12.9 0.00 0.00 0.00 92 1020.8
20260507134552 5 214 4.8 14.5 0.00 0.00 0.00 92 1020.9
20260507133051 4 258 3.2 11.3 0.00 0.00 0.00 93 1020.9
20260507131546 4 235 4.8 12.9 0.00 0.00 0.00 93 1020.9
20260507130058 4 240 3.2 12.9 0.00 0.00 0.00 93 1020.8
20260507124602 4 240 1.6 8.0 0.00 0.00 0.00 93 1020.6
20260507123102 4 246 3.2 8.0 0.00 0.00 0.00 93 1020.4
20260507121555 3 248 3.2 9.7 0.00 0.00 0.00 93 1020.4
20260507120042 3 279 1.6 8.0 0.00 0.00 0.00 93 1020.3
20260507114540 3 271 1.6 8.0 0.00 0.00 0.00 92 1020.1
20260507113040 3 285 1.6 6.4 0.00 0.00 0.00 92 1020.1
20260507111537 4 263 1.6 6.4 0.00 0.00 0.00 92 1020.1
20260507110035 4 261 0.0 4.8 0.00 0.00 0.00 92 1020.2
20260507104536 4 291 0.0 4.8 0.00 0.00 0.00 92 1020.2
20260507103033 3 285 0.0 3.2 0.00 0.00 0.00 91 1020.3
20260507101539 3 271 0.0 0.0 0.00 0.00 0.00 90 1020.4
20260507100045 4 271 0.0 0.0 0.00 0.00 0.00 90 1020.4
20260507094531 4 296 0.0 1.6 0.00 0.00 0.00 90 1020.3
20260507093030 4 297 0.0 4.8 0.00 0.00 0.00 90 1020.4
20260507091529 3 58 0.0 0.0 0.00 0.00 0.00 88 1020.0
20260507090024 4 58 0.0 0.0 0.00 0.00 0.00 87 1019.9
20260507084522 4 58 0.0 0.0 0.00 0.00 0.00 84 1019.9
20260507083019 5 58 0.0 0.0 0.00 0.00 0.00 83 1019.9
20260507081517 6 58 0.0 0.0 0.00 0.00 0.00 83 1020.1
20260507080014 6 71 0.0 0.0 0.00 0.00 0.00 83 1019.9
20260507074512 6 69 1.6 6.4 0.00 0.00 0.00 82 1020.0
20260507073009 6 75 0.0 0.0 0.00 0.00 0.00 81 1020.4
20260507071504 6 283 0.0 6.4 0.00 0.00 0.00 78 1021.1
20260507070000 7 347 1.6 9.7 0.00 0.00 0.00 72 1021.2
20260507064559 7 285 0.0 8.0 0.00 0.00 0.00 69 1021.5
20260507063058 7 18 0.0 8.0 0.00 0.00 0.00 67 1021.2
20260507061554 7 345 1.6 8.0 0.00 0.00 0.00 67 1021.1
20260507060058 8 15 0.0 9.7 0.00 0.00 0.00 66 1020.5
20260507054548 8 36 3.2 16.1 0.00 0.00 0.00 65 1020.2
20260507053046 8 5 3.2 12.9 0.00 0.00 0.00 64 1020.3
20260507051544 8 31 1.6 12.9 0.00 0.00 0.00 64 1020.0
20260507050042 8 342 3.2 14.5 0.00 0.00 0.00 64 1019.9
20260507044542 8 344 6.4 20.9 0.00 0.00 0.00 63 1020.3
20260507043042 8 259 4.8 12.9 0.00 0.00 0.00 61 1020.2
20260507041543 8 9 6.4 19.3 0.00 0.00 0.00 60 1019.7
20260507040034 9 81 3.2 20.9 0.00 0.00 0.00 59 1019.4
20260507034534 9 316 6.4 16.1 0.00 0.00 0.00 58 1019.4
20260507033035 10 207 6.4 22.5 0.00 0.00 0.00 58 1019.2
20260507031531 10 41 4.8 17.7 0.00 0.00 0.00 58 1019.0
20260507030028 11 343 6.4 22.5 0.00 0.00 0.00 55 1018.5
20260507024525 11 288 6.4 17.7 0.00 0.00 0.00 53 1018.3
20260507023023 12 4 6.4 22.5 0.00 0.00 0.00 52 1017.8
20260507021519 12 339 4.8 14.5 0.00 0.00 0.00 53 1017.1
20260507020018 12 329 3.2 14.5 0.00 0.00 0.00 52 1017.0
20260507014517 12 29 6.4 16.1 0.00 0.00 0.00 52 1016.1
20260507013019 12 37 4.8 14.5 0.00 0.00 0.00 51 1015.5